sat.trackr.live / text

‹ back to catalog

STARLINK-35151

NORAD 65624 · 2025-210C

PAYLOAD ACTIVE UNKNOWN

§ Identity

Operator
Country
US
Launch date
2025-09-18
Launch site
AFETR
Launch vehicle
Mass (kg)
RCS (m²)

Purposes: comms

External: N2YO · Heavens-Above · Gunter

§ Orbital elements

Epoch: 2026-09-20T21:20:03.541632Z

Period
93.85 min
Inclination
53.1576°
Eccentricity
0.0002531
Mean motion
15.34419073 rev/d
Perigee alt
460.9 km
Apogee alt
464.4 km
Semi-major
6,840.8 km
B*
6.7634e-4
RAAN
114.2416°
Arg perigee
89.2507°
Mean anomaly
270.8785°
Rev number
5,762

§ Raw data

STARLINK-351511 65624U 25210C   26263.88892988  .00022558  00000+0  67634-3 0  99922 65624  53.1576 114.2416 0002531  89.2507 270.8785 15.34419073 57627

JSON: /api/v1/satellites/65624 · /tle

For live sub-satellite position, see the globe view (requires WebGL).

§ Visibility from observer

Set your observer location to see the next 7 days of passes ≥ 10°. The values pass through the URL so the page stays shareable.

No JS? Fill the form by hand. The geolocation button needs JavaScript.